Clearfield, PA

4:34 AM EST on February 10, 2016 (GMT -0500)
Clearfield-Lawrence

Weather History for KFIG - August, 2013

Change the Weather History Date:

Tuesday, August 20, 2013

  Actual Average (KDUJ) Record (KDUJ)
Temperature  
Mean Temperature 70 °F 67 °F  
Max Temperature 81 °F 77 °F 88 °F (1962)
Min Temperature 59 °F 57 °F 45 °F (1992)
Degree Days  
Heating Degree Days 0 1  
Month to date heating degree days 20  
Since 1 June heating degree days 129  
Since 1 July heating degree days 44  
Cooling Degree Days 5 3  
Month to date cooling degree days 77  
Year to date cooling degree days 302  
Since 1 June cooling degree days 279  
Growing Degree Days 20 (Base 50)    
Moisture  
Dew Point 61 °F    
Average Humidity 86    
Maximum Humidity 100    
Minimum Humidity 45    
Precipitation  
Precipitation 0.01 in 0.13 in 1.32 in (2004)
Month to date precipitation 2.54  
Sea Level Pressure  
Sea Level Pressure 30.18 in    
Wind  
Wind Speed 3 mph (SW)    
Max Wind Speed 9 mph    
Max Gust Speed -    
Visibility 5 miles    
Events Fog    
T = Trace of Precipitation, MM = Missing Value Source: NWS Daily Summary

Daily Weather History Graph

Daily Weather History Graph

Search for Another Location

Airport or City:

Trip Planner

Search our weather history database for the weather conditions in past years. The results will help you decide how hot, cold, wet, or windy it might be!

Date:

Astronomy

Aug. 20, 2013 Rise Set
Actual Time 6:28 AM EDT 8:04 PM EDT
Civil Twilight 5:59 AM EDT 8:33 PM EDT
Nautical Twilight 5:24 AM EDT 9:08 PM EDT
Astronomical Twilight 4:46 AM EDT 9:45 PM EDT
Moon 7:34 PM EDT (8/20) 5:56 AM EDT (8/20)
Length of Visible Light 14h 34m
Length of Day
13h 36m
Full, 100% of the Moon is Illuminated
Aug 20
Full
Aug 20
Full
Aug 28
Last Quarter
Sep 5
New
Sep 12
First Quarter

Hourly Weather History & Observations

Time (EDT) Temp. Heat Index Dew Point Humidity Pressure Visibility Wind Dir Wind Speed Gust Speed Precip Events Conditions
12:54 AM 64.0 °F - 64.0 °F 100% 30.12 in 6.0 mi WSW 3.5 mph - N/A   Clear
1:24 AM 62.6 °F - 62.6 °F 100% 30.14 in 2.0 mi SW 3.5 mph - N/A   Scattered Clouds
1:26 AM 62.6 °F - 62.6 °F 100% 30.14 in 1.0 mi SW 3.5 mph - N/A   Mist
1:31 AM 62.6 °F - 62.6 °F 100% 30.14 in 0.2 mi SW 3.5 mph - N/A Fog Fog
1:54 AM 62.1 °F - 62.1 °F 100% 30.12 in 0.2 mi SW 4.6 mph - N/A Fog Fog
2:54 AM 62.1 °F - 62.1 °F 100% 30.12 in 0.2 mi SSW 3.5 mph - N/A Fog Fog
3:54 AM 61.0 °F - 61.0 °F 100% 30.12 in 0.2 mi Calm Calm - N/A Fog Fog
4:54 AM 60.1 °F - 60.1 °F 100% 30.13 in 0.2 mi Calm Calm - N/A Fog Fog
5:54 AM 59.0 °F - 59.0 °F 100% 30.15 in 0.2 mi Calm Calm - N/A Fog Fog
6:54 AM 59.0 °F - 59.0 °F 100% 30.18 in 0.2 mi SW 3.5 mph - N/A Fog Fog
7:54 AM 59.0 °F - 59.0 °F 100% 30.20 in 0.2 mi Calm Calm - 0.01 in Fog Fog
8:54 AM 61.0 °F - 61.0 °F 100% 30.21 in 0.2 mi Calm Calm - N/A Fog Fog
9:54 AM 62.1 °F - 62.1 °F 100% 30.22 in 0.2 mi Calm Calm - N/A Fog Fog
10:08 AM 62.6 °F - 62.6 °F 100% 30.23 in 0.5 mi Calm Calm - N/A Fog Fog
10:17 AM 62.6 °F - 62.6 °F 100% 30.23 in 2.0 mi SSW 3.5 mph - N/A   Overcast
10:26 AM 62.6 °F - 62.6 °F 100% 30.24 in 4.0 mi SW 3.5 mph - N/A   Overcast
10:49 AM 64.4 °F - 64.4 °F 100% 30.24 in 6.0 mi Calm Calm - N/A   Overcast
10:54 AM 64.0 °F - 64.0 °F 100% 30.22 in 7.0 mi South 3.5 mph - N/A   Mostly Cloudy
11:07 AM 66.2 °F - 64.4 °F 94% 30.24 in 10.0 mi Calm Calm - N/A   Scattered Clouds
11:54 AM 73.9 °F - 62.1 °F 66% 30.20 in 10.0 mi Variable 3.5 mph - N/A   Clear
12:54 PM 77.0 °F - 57.9 °F 52% 30.19 in 10.0 mi Variable 5.8 mph - N/A   Partly Cloudy
1:54 PM 79.0 °F - 57.0 °F 47% 30.19 in 10.0 mi Variable 4.6 mph - N/A   Clear
2:54 PM 81.0 °F 81.3 °F 59.0 °F 47% 30.17 in 10.0 mi SW 9.2 mph - N/A   Mostly Cloudy
3:54 PM 78.1 °F - 57.9 °F 50% 30.16 in 10.0 mi WSW 5.8 mph - N/A   Scattered Clouds
4:54 PM 80.1 °F 80.4 °F 57.0 °F 45% 30.15 in 10.0 mi Variable 5.8 mph - N/A   Clear
5:54 PM 79.0 °F - 57.9 °F 48% 30.15 in 10.0 mi West 5.8 mph - N/A   Partly Cloudy
6:54 PM 77.0 °F - 59.0 °F 54% 30.15 in 10.0 mi West 3.5 mph - N/A   Partly Cloudy
7:54 PM 73.9 °F - 57.9 °F 57% 30.16 in 10.0 mi West 3.5 mph - N/A   Clear
8:54 PM 66.0 °F - 63.0 °F 90% 30.18 in 10.0 mi Calm Calm - N/A   Clear
9:54 PM 64.0 °F - 62.1 °F 93% 30.20 in 10.0 mi Calm Calm - N/A   Clear
10:54 PM 61.0 °F - 60.1 °F 97% 30.21 in 7.0 mi Calm Calm - N/A   Clear
11:54 PM 60.1 °F - 60.1 °F 100% 30.20 in 6.0 mi NNW 3.5 mph - N/A   Clear